Terug naar catalogus

USA 181

ActiefMilitairLEO
NORAD 28537·PAYLOAD·🇺🇸 United States

Gelanceerd Feb 3, 2005 vanaf Cape Canaveral Space Force Station

Loading…

Volgende Passages (komende 24 uur)

TLE

VerouderdSource: Mike McCants

Epoch: Sep 5, 2026, 00:45 UTC

1 28537U 05004A   26248.03181173 0.00000000  00000-0  00000-0 0    03
2 28537  63.3938 220.8267 0565010   5.1451 354.8549 13.41279753    09

Volg USA 181 in realtime met AllMySat

Download on the App Store